Weather History for Danville, IL

Change the Weather History Date:

Tuesday, July 23, 2013

  Actual Average (KLAF) Record (KLAF)
Temperature  
Mean Temperature 75 °F 74 °F  
Max Temperature 88 °F 85 °F 101 °F (1983)
Min Temperature 61 °F 64 °F 50 °F (1985)
Degree Days  
Heating Degree Days 0 0  
Month to date heating degree days 0  
Since 1 June heating degree days 22  
Since 1 July heating degree days 0  
Cooling Degree Days 10 9  
Month to date cooling degree days 227  
Year to date cooling degree days 521  
Since 1 June cooling degree days 444  
Growing Degree Days 25 (Base 50)    
Moisture  
Dew Point 66 °F    
Average Humidity 71    
Maximum Humidity 93    
Minimum Humidity 47    
Precipitation  
Precipitation 0.08 in 0.13 in 1.07 in (1957)
Month to date precipitation 3.10  
Year to date precipitation 21.22  
Sea Level Pressure  
Sea Level Pressure 29.81 in    
Wind  
Wind Speed 6 mph (NW)    
Max Wind Speed 17 mph    
Max Gust Speed 23 mph    
Visibility 8 miles    
Events Rain    
T = Trace of Precipitation, MM = Missing Value Source: NWS Daily Summary

Daily Weather History Graph

Daily Weather History Graph

Search for Another Location

Airport:

Trip Planner

Search our weather history database for the weather conditions in past years. The results will help you decide how hot, cold, wet, or windy it might be!

Date:

Astronomy

Jul. 23, 2013 Rise Set
Actual Time 5:40 AM CDT 8:12 PM CDT
Civil Twilight 5:09 AM CDT 8:44 PM CDT
Nautical Twilight 4:30 AM CDT 9:22 PM CDT
Astronomical Twilight 3:46 AM CDT 10:06 PM CDT
Moon 8:40 PM CDT (7/23) 6:48 AM CDT (7/23)
Length of Visible Light 15h 34m
Length of Day
14h 32m
Full, 99% of the Moon is Illuminated
Jul 23
Full
Jul 29
Last Quarter
Aug 6
New
Aug 14
First Quarter
Aug 20
Full

Hourly Weather History & Observations

Time (CDT) Temp. Heat Index Dew Point Humidity Pressure Visibility Wind Dir Wind Speed Gust Speed Precip Events Conditions
12:15 AM 69.8 °F - 64.9 °F 84% 29.83 in 7.0 mi Calm Calm - N/A   Clear
12:35 AM 69.8 °F - 65.3 °F 86% 29.82 in 5.0 mi WSW 3.5 mph - N/A   Haze
12:55 AM 71.4 °F - 67.3 °F 87% 29.81 in 7.0 mi SW 4.6 mph - N/A   Clear
1:15 AM 72.0 °F - 68.2 °F 88% 29.80 in 7.0 mi SW 4.6 mph - N/A   Clear
1:35 AM 72.0 °F - 68.2 °F 88% 29.80 in 7.0 mi SW 4.6 mph - N/A   Clear
1:55 AM 72.5 °F - 69.3 °F 90% 29.83 in 7.0 mi WNW 17.3 mph 23.0 mph N/A   Scattered Clouds
2:15 AM 71.2 °F - 65.7 °F 82% 29.82 in 5.0 mi North 8.1 mph 20.7 mph 0.07 in Rain Rain
2:35 AM 69.1 °F - 63.9 °F 83% 29.78 in 10.0 mi NE 4.6 mph - 0.08 in   Scattered Clouds
2:55 AM 68.5 °F - 63.1 °F 83% 29.75 in 10.0 mi East 6.9 mph - 0.08 in   Clear
3:15 AM 68.5 °F - 63.5 °F 84% 29.75 in 10.0 mi South 4.6 mph - N/A Rain Light Rain
3:35 AM 68.5 °F - 64.6 °F 87% 29.79 in 10.0 mi SW 5.8 mph - N/A Rain Rain
3:55 AM 68.5 °F - 65.1 °F 89% 29.77 in 7.0 mi SW 5.8 mph - N/A Rain Rain
4:15 AM 68.2 °F - 64.9 °F 89% 29.76 in 7.0 mi South 4.6 mph - N/A Rain Light Rain
4:35 AM 68.4 °F - 65.5 °F 90% 29.76 in 10.0 mi South 4.6 mph - N/A   Clear
4:55 AM 68.4 °F - 65.5 °F 90% 29.76 in 7.0 mi SSW 4.6 mph - N/A   Clear
5:15 AM 68.0 °F - 65.3 °F 91% 29.75 in 7.0 mi Calm Calm - N/A   Clear
5:35 AM 67.6 °F - 64.8 °F 90% 29.76 in 5.0 mi SW 3.5 mph - N/A   Clear
5:55 AM 67.1 °F - 64.4 °F 91% 29.75 in 3.0 mi Calm Calm - N/A   Clear
6:15 AM 68.2 °F - 65.7 °F 92% 29.76 in 5.0 mi Calm Calm - N/A   Clear
6:35 AM 70.0 °F - 67.8 °F 93% 29.76 in 5.0 mi Calm Calm - N/A   Clear
6:55 AM 72.1 °F - 69.8 °F 92% 29.77 in 7.0 mi Calm Calm - N/A   Clear
7:15 AM 73.8 °F - 70.7 °F 90% 29.77 in 10.0 mi Calm Calm - N/A   Clear
7:35 AM 75.0 °F - 71.6 °F 89% 29.77 in 7.0 mi Calm Calm - N/A   Clear
7:55 AM 77.7 °F - 72.1 °F 83% 29.78 in 7.0 mi WSW 4.6 mph - N/A   Clear
8:15 AM 79.3 °F - 72.3 °F 79% 29.78 in 10.0 mi SW 4.6 mph - N/A   Clear
8:35 AM 79.9 °F - 71.6 °F 76% 29.79 in 10.0 mi West 4.6 mph - N/A   Clear
8:55 AM 80.8 °F 84.7 °F 71.4 °F 73% 29.79 in 10.0 mi West 10.4 mph - N/A   Scattered Clouds
9:15 AM 80.6 °F 84.2 °F 70.9 °F 72% 29.79 in 10.0 mi West 8.1 mph - N/A   Scattered Clouds
9:35 AM 81.7 °F 85.1 °F 69.3 °F 66% 29.79 in 10.0 mi WNW 11.5 mph - N/A   Clear
9:55 AM 82.6 °F 86.1 °F 69.3 °F 64% 29.80 in 10.0 mi WNW 6.9 mph - N/A   Scattered Clouds
10:15 AM 83.5 °F 86.0 °F 66.7 °F 57% 29.81 in 10.0 mi West 9.2 mph - N/A   Scattered Clouds
10:35 AM 83.5 °F 86.0 °F 66.9 °F 57% 29.82 in 10.0 mi West 10.4 mph - N/A   Clear
10:55 AM 84.4 °F 87.3 °F 67.5 °F 57% 29.82 in 7.0 mi West 6.9 mph - N/A   Clear
11:15 AM 85.6 °F 89.1 °F 68.5 °F 56% 29.81 in 7.0 mi West 11.5 mph - N/A   Scattered Clouds
11:35 AM 86.7 °F 90.3 °F 68.0 °F 54% 29.81 in 10.0 mi West 9.2 mph - N/A   Clear
11:55 AM 86.5 °F 89.3 °F 67.1 °F 52% 29.81 in 10.0 mi West 11.5 mph 18.4 mph N/A   Scattered Clouds
12:15 PM 86.9 °F 91.3 °F 69.3 °F 56% 29.81 in 10.0 mi West 11.5 mph 17.3 mph N/A   Clear
12:35 PM 87.8 °F 92.6 °F 69.6 °F 55% 29.80 in 10.0 mi WNW 11.5 mph - N/A   Clear
12:55 PM 88.3 °F 92.4 °F 68.9 °F 52% 29.80 in 7.0 mi WNW 11.5 mph 19.6 mph N/A   Clear
1:15 PM 87.8 °F 91.8 °F 68.9 °F 53% 29.79 in 5.0 mi WNW 11.5 mph 18.4 mph N/A   Haze
1:35 PM 87.1 °F 90.9 °F 68.4 °F 54% 29.78 in 7.0 mi NW 12.7 mph 16.1 mph N/A   Clear
1:55 PM 87.3 °F 91.6 °F 69.3 °F 55% 29.78 in 5.0 mi NNW 9.2 mph - N/A   Haze
2:15 PM 86.7 °F 91.4 °F 69.6 °F 57% 29.78 in 7.0 mi NW 13.8 mph 17.3 mph N/A   Clear
2:35 PM 87.4 °F 91.5 °F 68.9 °F 54% 29.78 in 7.0 mi NW 13.8 mph 19.6 mph N/A   Scattered Clouds
3:15 PM 87.6 °F 90.1 °F 66.4 °F 49% 29.79 in 7.0 mi NW 10.4 mph 19.6 mph N/A   Clear
3:35 PM 88.0 °F 91.4 °F 68.0 °F 51% 29.79 in 7.0 mi NNW 12.7 mph 17.3 mph N/A   Scattered Clouds
3:55 PM 86.9 °F 89.9 °F 67.5 °F 52% 29.79 in 5.0 mi NW 15.0 mph 18.4 mph N/A   Haze
4:15 PM 86.5 °F 89.0 °F 66.6 °F 51% 29.79 in 7.0 mi NNW 12.7 mph 19.6 mph N/A   Scattered Clouds
4:35 PM 87.6 °F 89.7 °F 65.5 °F 48% 29.79 in 7.0 mi NNW 10.4 mph 16.1 mph N/A   Scattered Clouds
4:55 PM 85.6 °F 86.6 °F 63.3 °F 47% 29.79 in 7.0 mi NW 10.4 mph 17.3 mph N/A   Scattered Clouds
5:15 PM 84.0 °F 85.2 °F 63.7 °F 50% 29.79 in 7.0 mi NNW 9.2 mph 16.1 mph N/A   Clear
5:35 PM 82.0 °F 83.8 °F 64.8 °F 56% 29.79 in 7.0 mi NNW 10.4 mph 18.4 mph N/A   Clear
5:55 PM 81.5 °F 84.1 °F 67.3 °F 62% 29.80 in 7.0 mi North 9.2 mph 18.4 mph N/A Rain Rain
6:15 PM 80.8 °F 82.9 °F 66.4 °F 61% 29.80 in 7.0 mi NNE 9.2 mph - N/A Rain Rain
6:35 PM 78.6 °F - 65.3 °F 64% 29.80 in 10.0 mi NNE 8.1 mph - N/A   Scattered Clouds
6:55 PM 76.3 °F - 63.7 °F 65% 29.80 in 10.0 mi NNE 10.4 mph 16.1 mph N/A Rain Light Rain
7:15 PM 75.2 °F - 64.0 °F 68% 29.81 in 7.0 mi NNE 10.4 mph 16.1 mph N/A Rain Light Rain
7:35 PM 74.1 °F - 63.0 °F 68% 29.82 in 7.0 mi NE 10.4 mph 16.1 mph N/A Rain Rain
7:55 PM 72.7 °F - 62.6 °F 71% 29.84 in 10.0 mi NNE 9.2 mph 17.3 mph N/A Rain Light Rain
8:15 PM 71.8 °F - 61.7 °F 70% 29.85 in 10.0 mi NNE 12.7 mph 18.4 mph N/A   Mostly Cloudy
8:35 PM 70.7 °F - 60.8 °F 71% 29.86 in 10.0 mi NNE 9.2 mph - N/A   Scattered Clouds
8:55 PM 69.8 °F - 60.3 °F 72% 29.87 in 10.0 mi NNE 10.4 mph - N/A   Clear
9:15 PM 68.9 °F - 59.7 °F 72% 29.88 in 10.0 mi NNE 9.2 mph - N/A   Clear
9:35 PM 68.4 °F - 59.4 °F 73% 29.90 in 10.0 mi NNE 9.2 mph 16.1 mph N/A   Clear
9:55 PM 67.6 °F - 58.6 °F 73% 29.90 in 10.0 mi NNE 9.2 mph 16.1 mph N/A   Clear
10:15 PM 66.7 °F - 57.9 °F 73% 29.92 in 10.0 mi NNE 10.4 mph 17.3 mph N/A   Unknown
10:35 PM 65.5 °F - 56.7 °F 73% 29.92 in 10.0 mi NNE 5.8 mph - N/A   Unknown
10:55 PM 64.0 °F - 55.8 °F 74% 29.92 in 10.0 mi NNE 5.8 mph - N/A   Unknown
11:15 PM 63.0 °F - 55.0 °F 75% 29.93 in 10.0 mi NNE 9.2 mph - N/A   Clear
11:35 PM 62.6 °F - 55.4 °F 77% 29.93 in 10.0 mi NNE 6.9 mph - N/A   Clear
11:55 PM 61.9 °F - 54.7 °F 77% 29.93 in 10.0 mi NNE 5.8 mph - N/A   Clear